Cloud_Cover
100 100 100 100 100 66 10 5 86 64 100 52 79 57 48 30 94 76 98 99 77 70 51 10 20 5 48 1 1 0 2 10 32 16 11 15 1 5 6 5 5 23 100 88 5 4 5 3 1
100 100 100 100 100 100 100 80 11 24 55 24 3 2 25 98 100 78 36 63 66 34 100 46 7 3 18 5 2 2 0 1 1 7 20 22 16 4 4 88 7 20 100 100 69 12 36 12 5
0 2 37 100 100 100 100 100 100 87 41 100 82 97 51 17 72 53 5 53 13 4 99 100 100 99 44 5 5 4 5 4 1 0 5 19 66 96 4 1 2 92 100 44 14 66 100 100 48
0 0 0 8 89 100 100 100 100 99 41 9 100 57 16 78 87 28 5 6 5 9 19 100 100 100 100 99 100 26 75 5 7 7 5 5 4 0 0 0 3 52 76 6 84 95 99 9 3
0 0 0 0 0 7 20 64 100 100 80 5 5 5 25 93 100 100 81 10 25 52 37 44 97 100 100 100 100 100 100 81 50 31 49 67 6 21 4 4 64 100 100 100 48 5 5 0 5
0 0 0 0 0 0 0 0 4 14 42 58 76 85 87 100 94 100 100 100 89 85 76 62 11 81 100 100 100 100 100 100 100 100 94 100 96 42 5 93 65 100 100 29 6 6 5 5 3
0 0 0 0 0 0 0 0 0 0 3 9 63 70 33 100 100 100 100 100 100 100 98 98 76 12 12 97 100 100 100 100 100 100 100 100 100 100 98 93 100 100 73 32 89 100 41 5 5
0 0 0 0 0 0 0 0 0 0 0 41 8 98 71 24 77 100 100 100 100 100 100 100 99 97 20 34 100 100 100 100 100 100 100 100 100 100 100 100 100 100 100 100 96 100 100 75 5
0 0 0 0 0 0 0 0 0 0 0 0 0 33 58 66 61 71 89 100 100 100 100 100 100 34 84 93 95 100 100 100 100 100 100 100 100 100 100 100 100 100 100 100 100 100 100 100 70
0 0 0 0 0 0 0 0 0 0 0 0 0 0 0 4 52 72 81 100 100 100 100 100 100 100 100 100 59 64 100 100 100 100 100 100 100 100 100 100 100 100 100 100 100 100 100 100 100
0 0 0 0 0 0 0 0 0 0 0 47 15 0 0 34 100 100 97 100 100 100 100 100 100 100 100 100 98 71 99 97 100 100 100 100 100 100 100 100 100 100 100 100 100 100 100 100 100
0 0 0 0 0 0 0 0 0 0 1 0 0 0 0 42 100 100 100 100 100 100 100 100 100 100 100 100 100 100 100 100 100 100 84 98 100 100 100 100 100 100 100 100 100 100 100 100 100
0 0 0 0 0 0 0 0 0 0 0 0 0 0 0 89 100 100 100 100 100 100 100 100 100 100 100 100 100 80 99 100 98 94 99 100 100 99 100 100 100 100 100 100 100 100 100 100 100
0 0 0 0 0 0 0 0 0 0 0 0 0 0 0 1 50 100 100 99 100 100 100 100 100 100 100 100 100 94 94 100 100 100 100 100 100 99 100 100 100 100 100 100 100 100 100 100 100
0 0 0 0 0 0 0 0 0 0 0 0 0 0 0 0 20 100 100 83 100 100 100 100 100 100 100 100 100 100 98 100 100 84 100 100 100 100 100 100 100 100 100 100 100 100 100 100 100
0 0 0 0 0 0 0 0 0 0 0 0 0 0 0 4 4 92 36 100 100 100 100 100 100 100 100 100 100 100 100 100 100 100 100 100 100 100 100 100 100 100 100 100 100 100 100 100 100
0 0 0 0 0 0 0 0 0 0 0 0 0 0 0 0 0 2 37 100 100 100 100 100 100 100 100 100 100 100 100 100 100 99 100 100 100 100 100 100 100 100 100 100 100 100 100 100 100
0 0 0 0 0 0 0 0 0 0 0 0 0 0 0 0 0 0 0 99 100 100 100 100 100 100 100 100 100 100 100 100 100 100 100 100 100 100 100 100 100 100 100 100 100 100 100 100 100
0 1 3 0 0 0 0 0 0 0 0 0 0 0 0 4 5 0 0 10 100 100 100 100 100 100 100 100 100 100 100 100 100 100 100 100 100 100 100 100 100 100 100 100 100 100 100 100 100
6 2 4 1 0 0 0 0 0 0 0 0 0 0 5 10 10 6 0 6 100 100 100 100 100 100 100 100 100 100 100 100 100 100 100 100 100 100 100 100 100 100 100 100 100 100 100 100 100
100 5 5 5 0 3 0 0 0 0 0 0 0 0 0 5 64 34 2 99 100 100 100 100 100 100 100 100 100 100 100 100 100 100 100 100 100 100 100 100 100 100 100 100 100 100 100 100 100
15 5 5 3 2 4 1 3 0 0 0 0 0 0 0 5 44 52 12 95 100 100 100 100 100 100 100 100 100 100 100 100 100 100 100 100 100 100 98 93 100 100 100 100 100 100 100 100 100
5 5 5 2 2 4 4 4 0 0 0 0 0 0 0 3 5 85 100 60 100 100 100 100 100 100 100 100 100 100 100 100 100 100 100 100 100 100 100 100 100 100 100 100 100 100 100 100 100
4 4 5 5 5 5 5 2 0 0 0 0 0 0 0 0 0 7 100 58 100 100 100 100 100 100 100 100 100 100 100 100 100 100 100 100 100 100 100 100 100 100 100 100 100 100 100 98 100
3 2 3 2 4 2 4 4 0 0 0 0 0 0 0 0 0 0 1 34 93 100 100 100 100 100 100 100 100 100 100 100 100 100 100 100 100 100 100 100 100 100 100 100 100 100 100 100 99
5 1 4 0 0 1 0 20 0 0 0 0 0 0 0 0 0 0 0 0 0 100 100 100 100 100 100 100 100 100 100 100 100 100 100 100 100 100 100 100 100 100 100 97 100 100 100 100 100
2 5 5 40 80 52 3 54 14 0 0 0 0 0 0 0 0 0 0 0 0 67 100 100 100 100 100 100 100 100 100 100 100 100 100 100 100 100 100 100 100 100 100 100 100 100 100 100 100
2 4 0 18 0 0 0 0 39 17 0 0 0 0 0 0 0 1 5 0 5 5 22 100 100 100 100 100 100 100 100 100 100 100 100 100 100 100 100 100 100 100 100 100 100 100 100 100 100
76 5 5 5 5 3 27 0 5 55 3 0 0 0 0 0 0 0 0 4 5 5 5 5 24 76 100 100 100 100 100 100 100 100 100 100 100 100 100 100 100 100 100 100 100 100 100 100 100
5 5 4 0 1 36 14 11 0 8 95 2 0 0 0 0 0 0 0 5 5 5 5 5 5 5 95 100 100 100 100 100 100 100 100 100 100 100 100 100 100 100 100 100 100 100 100 100 100